Location: ??????
(55.2000°N, 38.3000°E)
Time: 01:46:26
(UTC+00:00)

COSMOS 2428 - Pass Details

Date: 15 November 2025
Orbit: 847 x 852 km, 70.9° (Epoch: 12 December)

Event Time Altitude Azimuth Distance (km) Brightness Sun altitude
Exits shadow 03:21:04 19° 292° (WNW) 1,903 3.9 -13.8°
Maximum altitude 03:23:36 26° 330° (NNW) 1,614 3.8 -13.4°
Drops below altitude 10° 03:28:20 10° 26° (NNE) 2,484 5.3 -12.8°
Sets 03:31:13 0° 39° (NE) 3,422 6.2 -12.4°
